TimeEST,TemperatureF,Dew PointF,Humidity,Sea Level PressureIn,VisibilityMPH,Wind Direction,Wind SpeedMPH,Gust SpeedMPH,PrecipitationIn,Events,Conditions,WindDirDegrees,DateUTC
12:53 AM,43.0,30.0,60,29.86,10.0,South,6.9,-,N/A,,Clear,190,2013-01-20 05:53:00
1:53 AM,43.0,30.0,60,29.84,10.0,South,6.9,-,N/A,,Clear,190,2013-01-20 06:53:00
2:53 AM,43.0,30.9,62,29.80,10.0,SSW,10.4,24.2,N/A,,Clear,200,2013-01-20 07:53:00
3:53 AM,43.0,32.0,65,29.78,10.0,SSW,11.5,18.4,N/A,,Clear,210,2013-01-20 08:53:00
4:53 AM,43.0,32.0,65,29.74,10.0,SSW,9.2,21.9,N/A,,Clear,210,2013-01-20 09:53:00
5:53 AM,42.1,30.9,65,29.71,10.0,SSW,11.5,20.7,N/A,,Clear,210,2013-01-20 10:53:00
6:53 AM,42.1,30.9,65,29.68,10.0,SW,12.7,19.6,N/A,,Clear,220,2013-01-20 11:53:00
7:53 AM,43.0,30.9,62,29.67,10.0,SW,13.8,23.0,N/A,,Clear,220,2013-01-20 12:53:00
8:53 AM,45.0,30.0,56,29.65,10.0,SW,13.8,24.2,N/A,,Clear,230,2013-01-20 13:53:00
9:53 AM,48.9,28.0,44,29.65,10.0,SW,15.0,23.0,N/A,,Clear,220,2013-01-20 14:53:00
10:53 AM,52.0,27.0,38,29.61,10.0,SW,19.6,34.5,N/A,,Clear,230,2013-01-20 15:53:00
11:53 AM,55.0,26.1,33,29.55,10.0,SW,26.5,36.8,N/A,,Clear,230,2013-01-20 16:53:00
12:53 PM,54.0,25.0,33,29.55,10.0,WSW,24.2,36.8,N/A,,Partly Cloudy,250,2013-01-20 17:53:00
1:53 PM,53.1,25.0,34,29.57,10.0,West,21.9,33.4,N/A,,Overcast,260,2013-01-20 18:53:00
2:53 PM,48.0,28.0,46,29.62,10.0,West,19.6,26.5,N/A,,Scattered Clouds,280,2013-01-20 19:53:00
3:53 PM,46.9,23.0,39,29.65,10.0,West,15.0,21.9,N/A,,Mostly Cloudy,280,2013-01-20 20:53:00
4:53 PM,44.1,21.9,42,29.69,10.0,West,6.9,-,N/A,,Clear,280,2013-01-20 21:53:00
5:53 PM,41.0,14.0,33,29.75,10.0,NW,18.4,29.9,N/A,,Clear,310,2013-01-20 22:53:00
6:53 PM,37.0,15.1,41,29.81,10.0,WNW,18.4,24.2,N/A,,Clear,300,2013-01-20 23:53:00
7:53 PM,34.0,12.9,42,29.83,10.0,West,15.0,20.7,N/A,,Clear,280,2013-01-21 00:53:00
8:53 PM,33.1,10.0,38,29.88,10.0,WNW,12.7,24.2,N/A,,Clear,290,2013-01-21 01:53:00
9:53 PM,30.9,9.0,40,29.91,10.0,West,11.5,18.4,N/A,,Clear,280,2013-01-21 02:53:00
10:53 PM,28.9,7.0,40,29.92,10.0,WNW,8.1,17.3,N/A,,Clear,290,2013-01-21 03:53:00
11:53 PM,28.9,7.0,40,29.93,10.0,WNW,8.1,-,N/A,,Clear,290,2013-01-21 04:53:00